Regional Weather Roundup
Issued by NWS Albany, NY

Current Version | Previous Version | Graphics & Text | Print | Product List | Glossary Off
Versions: 1 2 3 4 5 6 7 8 9 10 11 12 13 14 15 16 17 18 19 20 21 22 23 24 25 26 27 28 29 30 31 32 33 34 35 36 37 38 39 40 41 42 43 44 45 46 47 48 49

000
ASUS41 KALY 031910
RWRALY

NEW YORK STATE HOURLY WEATHER ROUNDUP
NATIONAL WEATHER SERVICE ALBANY NY
300 PM EDT FRI JUL 03 2015

NOTE: "FAIR" INDICATES FEW OR NO CLOUDS BELOW 12,000 FEET WITH NO
SIGNIFICANT WEATHER AND/OR NO OBSTRUCTIONS TO VISIBILITY.

NYZ032-033-038>043-046>054-057>066-NYZ062>081-032000-
EAST


CITY           SKY/WX    TMP DP  RH WIND       PRES   REMARKS
ALBANY         MOSUNNY   76  45  33 S5        29.99S
GLENS FALLS    MOSUNNY   75  49  39 SE3       29.97S
POUGHKEEPSIE   SUNNY     77  47  34 CALM      29.98S
NEWBURGH       SUNNY     75  54  46 W7        30.01S
MONTGOMERY     SUNNY     76  55  48 VRB5      29.99S
WHITE PLAINS   SUNNY     77  49  37 NW6       29.99S
ISLIP          PTSUNNY   80  45  28 N7        29.96F
NEW YORK CITY  PTSUNNY   81  49  32 VRB7      29.96F
CENTRAL PARK   SUNNY     80  51  36 CALM      30.00S
$$

NYZ005>009-017-018-044>046-055-056-032000-
CENTRAL


CITY           SKY/WX    TMP DP  RH WIND       PRES   REMARKS
FULTON         SUNNY     74  49  41 SW3       29.99F
SYRACUSE       PTSUNNY   75  51  43 CALM      29.98F
ROME           SUNNY     73  43  33 CALM      30.00F
ELMIRA         MOSUNNY   76  54  46 VRB3      29.97F
BINGHAMTON     SUNNY     70  44  39 W7        30.02S
MONTICELLO     SUNNY     73  45  35 SW7       30.03S
$$

NYZ026>034-041>043-032000-
NORTH


CITY           SKY/WX    TMP DP  RH WIND       PRES   REMARKS
WATERTOWN      SUNNY     71  51  49 W9        29.99F
FORT DRUM      NOT AVBL
MASSENA        SUNNY     75  50  41 SW10      29.96F
SARANAC LAKE   SUNNY     71  42  35 S8        29.97F
PLATTSBURGH    SUNNY     74  50  42 SE10      29.94F
$$

NYZ001>004-010>016-019>021-032000-
WEST


CITY           SKY/WX    TMP DP  RH WIND       PRES   REMARKS
NIAGARA FALLS  MOSUNNY   73  45  36 VRB5      29.97F
BUFFALO        MOSUNNY   75  47  36 VRB5      29.97F
DUNKIRK        MOSUNNY   70  45  40 N12       29.97F
JAMESTOWN      MOSUNNY   72  50  46 S8        29.99F
WELLSVILLE     MOSUNNY   74  51  44 SW7       30.01F
ROCHESTER      PTSUNNY   75  47  36 CALM      29.98F
PENN YAN       SUNNY     73  47  39 CALM      30.00S
$$

             KEY
       WCI = WIND CHILL INDEX
       VSB = VISIBILITY
       HX  = HEAT INDEX
$$


USA.gov is the U.S. government's official web portal to all federal, state and local government web resources and services.